Wind_Speed
6 6 5 5 5 5 5 5 6 6 6 7 7 7 7 7 7 8 8 8 8 8 8 8 8 8 7 7 7 7 6 6 6 6 6 6 6 6 6 6 7 8 8
6 5 5 5 5 4 4 5 5 5 5 5 5 5 5 5 5 5 6 6 6 6 6 6 6 6 6 6 5 5 5 5 5 5 5 5 5 5 5 6 6 7 8
6 6 5 4 4 4 4 4 4 4 4 4 4 4 4 4 4 4 4 5 5 5 5 5 5 5 5 4 4 3 3 3 3 3 4 4 4 4 5 5 6 7 8
7 7 6 5 4 4 4 4 4 4 4 4 4 4 4 4 4 4 4 4 5 5 5 5 5 4 4 3 3 2 1 1 1 2 3 3 3 4 5 5 5 6 7
8 7 7 6 5 4 4 4 4 4 4 5 5 5 5 5 6 6 6 5 5 6 6 6 5 5 5 4 3 3 2 2 1 2 2 3 4 4 5 5 5 6 7
9 8 7 7 5 5 5 5 5 5 5 6 6 6 7 7 7 8 8 8 8 8 8 8 8 7 7 7 6 5 4 4 4 4 4 4 4 5 5 5 5 6 6
10 9 8 8 7 6 6 6 6 6 6 7 8 8 8 9 9 10 10 11 11 11 11 11 10 10 10 9 9 8 7 7 7 6 6 6 6 6 6 6 6 6 6
10 10 9 9 9 8 8 8 8 8 8 8 9 9 10 10 11 12 12 13 13 14 14 14 13 13 12 12 11 11 10 9 9 9 8 8 8 7 7 7 7 7 7
12 12 12 11 11 10 9 9 9 9 9 10 10 11 12 12 13 13 14 14 15 16 16 16 16 15 15 14 14 13 13 12 12 12 11 10 10 10 9 9 9 9 8
15 15 14 12 12 12 11 11 10 10 10 10 11 11 12 13 14 14 15 16 16 17 18 18 18 17 17 17 17 16 16 15 15 14 13 13 12 12 12 11 11 11 10
16 16 15 14 14 14 13 13 13 12 12 11 12 12 13 14 15 16 16 17 17 18 19 19 19 19 19 19 19 19 18 18 18 17 16 15 15 14 14 14 13 13 12
17 16 17 17 17 16 16 16 15 15 14 14 14 14 15 16 16 17 18 19 19 20 20 20 20 21 21 21 21 21 21 20 20 20 19 18 17 17 17 16 16 16 15
18 19 19 20 20 19 19 19 19 18 17 17 16 16 17 18 19 19 19 20 21 22 22 22 22 22 23 23 22 23 22 22 21 22 23 21 20 19 18 19 19 19 18
20 21 21 22 22 22 22 21 21 20 20 20 20 20 19 20 21 21 22 22 22 23 23 24 24 25 25 25 25 25 24 24 24 24 24 25 23 21 21 21 22 21 21
21 21 22 22 23 23 22 23 23 24 24 23 22 22 21 22 24 22 23 24 24 24 24 25 25 25 26 27 26 26 26 25 26 26 26 26 26 24 23 23 24 23 23
21 22 21 21 22 23 23 24 24 23 23 20 20 22 23 23 23 24 25 26 25 25 26 26 26 25 26 26 26 26 26 26 26 27 28 28 27 27 26 25 25 25 25
20 20 20 21 22 23 23 23 22 20 19 19 20 21 23 24 25 26 27 27 27 27 27 27 27 27 27 27 26 26 27 26 26 26 28 29 28 28 27 27 26 26 27
19 19 19 19 21 21 21 21 21 21 21 21 22 23 24 26 27 27 28 28 28 29 29 28 28 28 28 27 27 27 27 27 26 26 27 29 30 29 29 28 28 27 27
17 17 17 19 19 20 21 21 20 21 23 23 23 24 26 27 28 29 29 30 30 30 30 29 29 28 28 28 27 27 28 28 28 28 28 29 31 31 31 30 29 29 28
16 17 18 18 19 21 21 21 22 23 24 25 26 27 28 29 30 30 31 31 31 31 31 30 30 30 29 28 27 27 28 28 29 29 29 29 30 33 33 32 31 31 30
16 17 18 18 20 21 22 23 24 25 27 28 29 29 30 31 32 32 32 33 33 33 32 32 31 31 30 29 28 28 28 28 29 29 29 29 30 32 33 34 33 32 31
16 17 18 19 20 22 23 25 26 28 28 29 30 32 32 33 34 34 34 34 35 35 34 34 33 32 32 31 30 29 28 28 28 28 29 30 31 32 33 34 34 33 33
16 17 18 20 21 23 24 26 28 29 31 32 33 34 35 36 36 36 36 36 36 36 36 36 35 34 33 33 32 31 30 29 29 29 30 31 32 33 33 34 34 34 33
16 18 20 21 23 24 26 27 29 30 32 33 35 36 37 37 37 37 37 37 37 37 37 37 36 35 35 34 34 34 33 31 30 30 30 31 32 33 34 35 34 35 34
17 19 21 22 24 26 28 29 31 32 34 35 36 37 37 38 38 37 37 37 37 37 37 37 37 37 36 36 36 35 35 34 32 31 30 31 33 33 34 35 36 36 35
18 20 22 24 26 28 29 31 32 33 34 35 36 36 37 37 38 38 37 37 37 38 38 38 38 38 37 37 37 36 36 35 34 34 32 32 33 34 34 36 37 37 36
Wind_Direction
358 359 355 353 356 1 10 22 34 43 48 50 50 46 42 39 37 35 32 31 31 32 33 35 37 41 48 53 57 61 68 76 84 92 99 104 109 112 118 124 128 132 136
353 350 343 341 347 354 1 9 16 26 31 35 39 38 33 28 25 26 23 20 20 21 23 25 27 31 36 43 48 54 63 76 86 95 102 106 112 117 123 132 137 141 142
343 333 329 327 333 341 349 356 1 4 6 8 11 14 12 9 4 1 2 0 2 3 5 8 9 13 19 25 32 40 53 70 85 99 109 116 122 128 133 139 145 150 151
328 319 314 312 316 322 330 336 337 337 339 340 340 339 339 337 336 328 326 330 334 337 340 342 343 342 345 349 354 359 18 67 99 115 132 141 145 145 147 147 150 154 156
317 307 301 299 301 302 311 316 316 314 315 318 317 316 313 312 310 307 306 305 308 312 314 314 313 312 309 307 304 300 284 259 216 189 176 173 171 166 161 160 159 160 161
305 296 293 292 288 290 295 300 302 299 297 301 301 303 303 301 300 299 296 293 293 294 296 297 294 292 292 290 283 275 263 251 240 226 210 199 193 186 181 178 173 169 168
302 291 287 286 280 281 284 287 288 290 289 291 291 293 294 295 294 295 293 291 289 289 287 286 286 283 282 282 278 271 262 250 242 236 226 215 209 204 196 191 188 183 180
305 295 285 279 276 276 277 278 279 282 286 287 288 289 290 292 292 292 292 290 288 286 286 284 282 279 275 275 273 270 265 257 246 239 234 226 221 216 209 203 200 197 193
303 295 285 277 274 273 272 271 272 275 280 283 285 288 291 293 293 292 292 290 287 284 284 283 281 278 275 273 270 268 264 260 252 244 240 234 229 223 217 212 209 207 205
296 290 286 277 275 274 272 271 269 269 274 278 282 287 291 292 294 295 293 290 288 285 284 283 280 276 274 271 268 266 263 260 254 248 243 238 233 228 223 218 215 214 212
293 288 282 274 272 271 268 267 267 266 269 272 276 281 286 290 292 293 293 289 288 286 284 282 278 276 273 270 267 264 262 260 255 249 244 240 236 232 228 223 219 218 217
285 282 276 271 267 267 265 264 264 264 265 269 274 278 281 285 287 290 289 287 287 286 283 281 277 275 275 272 266 264 261 261 255 249 243 241 237 234 230 226 223 220 220
279 277 273 271 265 264 262 260 259 259 263 266 271 276 279 281 283 287 286 285 286 285 284 282 278 276 275 275 270 264 261 260 258 251 245 241 238 235 232 227 225 223 221
276 273 272 269 267 264 263 265 263 260 261 262 265 268 273 277 280 283 283 283 284 283 284 284 282 279 277 275 273 267 264 259 256 252 247 243 239 236 233 228 226 225 223
278 274 275 271 267 268 270 270 268 263 264 263 267 271 272 281 281 282 283 285 285 285 286 285 283 282 279 276 274 271 268 263 257 251 247 244 241 237 235 232 229 227 225
280 279 278 281 274 274 272 270 273 271 272 276 283 281 279 282 286 285 289 289 287 286 286 285 286 282 280 278 276 273 271 266 260 253 246 242 241 238 236 233 231 229 225
281 287 288 288 285 282 279 281 283 283 281 283 284 287 286 286 287 288 290 289 287 287 286 285 284 282 280 277 275 272 270 267 261 253 247 243 241 239 237 234 233 232 227
286 288 289 289 289 291 294 295 295 289 285 285 285 287 287 289 290 290 289 287 287 286 286 285 283 282 280 277 273 272 269 265 261 255 248 244 241 240 238 235 232 231 228
287 291 294 296 297 299 300 298 296 292 290 289 291 291 291 291 290 290 290 288 287 286 284 284 283 283 280 277 272 270 269 264 258 256 250 247 242 239 237 235 232 230 229
296 296 298 299 300 300 300 303 303 299 295 294 293 293 293 292 291 291 290 289 287 286 284 282 281 280 279 277 273 270 269 263 257 254 250 246 242 239 236 234 232 230 229
302 301 301 302 301 301 302 303 303 301 300 298 297 297 296 294 293 292 290 288 286 284 283 281 280 278 278 275 272 270 268 265 259 254 250 245 241 239 235 234 232 231 230
303 303 303 304 304 305 305 305 304 303 302 301 300 298 296 294 293 292 289 287 285 284 282 281 279 277 276 274 272 268 266 265 259 254 251 247 240 239 237 232 230 229 229
305 305 304 305 306 307 307 307 306 305 303 301 299 298 296 294 293 291 289 287 285 283 281 281 279 276 275 273 271 267 264 262 259 254 251 248 240 237 235 231 227 227 226
306 306 306 308 308 308 307 307 306 304 302 300 298 297 296 294 293 291 289 287 285 282 281 279 278 276 273 271 268 265 263 261 258 253 250 246 242 237 233 229 225 224 223
309 309 309 310 310 309 308 307 306 304 302 300 299 297 296 294 293 291 289 287 285 283 281 279 277 275 272 269 267 264 262 259 255 251 247 244 240 237 233 227 224 223 223
312 313 313 313 312 312 311 309 308 306 304 302 300 298 296 294 292 291 289 287 285 283 281 278 276 274 272 269 266 263 260 257 254 250 246 244 240 236 232 228 225 223 223
Height
5904 5903 5903 5903 5902 5901 5901 5900 5900 5900 5900 5900 5900 5900 5900 5900 5900 5900 5900 5900 5900 5900 5900 5900 5899 5899 5899 5899 5899 5898 5898 5898 5899 5899 5898 5898 5898 5898 5899 5899 5899 5900 5900
5904 5903 5903 5902 5902 5901 5900 5900 5899 5899 5900 5900 5900 5900 5900 5900 5900 5900 5900 5900 5900 5900 5900 5900 5899 5899 5899 5899 5899 5899 5899 5899 5899 5899 5899 5899 5899 5900 5900 5900 5901 5901 5901
5903 5903 5902 5902 5901 5900 5900 5899 5899 5899 5899 5899 5899 5900 5900 5900 5900 5900 5900 5900 5900 5899 5899 5899 5899 5899 5899 5899 5899 5899 5899 5899 5900 5900 5900 5900 5900 5901 5901 5901 5902 5902 5902
5903 5902 5902 5901 5900 5900 5899 5899 5899 5898 5898 5898 5898 5899 5899 5899 5899 5899 5899 5899 5899 5899 5899 5899 5899 5898 5898 5898 5899 5899 5899 5899 5899 5900 5900 5901 5901 5901 5902 5902 5902 5903 5903
5902 5901 5901 5900 5899 5899 5898 5898 5898 5897 5897 5897 5897 5897 5897 5897 5898 5898 5898 5898 5898 5898 5898 5897 5897 5897 5898 5898 5898 5898 5898 5899 5899 5899 5900 5900 5901 5902 5902 5903 5903 5904 5904
5901 5901 5900 5899 5898 5897 5897 5897 5897 5896 5896 5896 5896 5896 5896 5896 5896 5896 5896 5896 5896 5896 5896 5896 5896 5896 5896 5896 5897 5897 5897 5898 5898 5899 5899 5900 5901 5901 5902 5903 5903 5904 5905
5900 5899 5899 5898 5897 5896 5896 5895 5895 5895 5895 5895 5895 5895 5895 5894 5894 5894 5894 5894 5894 5894 5894 5894 5894 5894 5894 5894 5895 5895 5896 5896 5896 5897 5898 5899 5900 5900 5901 5902 5903 5904 5905
5898 5898 5897 5896 5895 5895 5894 5894 5894 5893 5893 5893 5893 5893 5893 5892 5892 5892 5892 5892 5892 5891 5891 5891 5891 5891 5892 5892 5892 5893 5893 5894 5894 5895 5896 5897 5898 5899 5900 5901 5902 5903 5904
5897 5896 5895 5894 5893 5893 5892 5892 5892 5891 5891 5891 5891 5891 5890 5890 5890 5889 5889 5889 5888 5888 5888 5888 5888 5888 5888 5889 5889 5889 5890 5891 5892 5893 5894 5895 5896 5897 5898 5899 5901 5902 5903
5894 5893 5893 5892 5891 5890 5890 5890 5889 5889 5889 5889 5889 5888 5888 5887 5887 5886 5886 5885 5885 5885 5884 5884 5884 5884 5884 5885 5885 5886 5886 5887 5888 5889 5890 5892 5893 5894 5896 5897 5899 5900 5902
5892 5891 5890 5889 5888 5888 5887 5887 5887 5886 5886 5886 5886 5885 5885 5884 5884 5883 5883 5882 5881 5881 5880 5880 5879 5879 5880 5880 5881 5882 5883 5883 5884 5885 5887 5888 5889 5891 5893 5894 5896 5898 5900
5888 5888 5887 5886 5885 5884 5884 5884 5883 5883 5883 5883 5882 5882 5882 5881 5880 5880 5879 5878 5877 5876 5876 5875 5875 5874 5874 5874 5875 5877 5878 5879 5880 5881 5882 5884 5885 5887 5889 5891 5893 5895 5897
5884 5883 5882 5881 5880 5880 5879 5879 5879 5878 5879 5878 5878 5878 5877 5877 5876 5875 5874 5873 5872 5872 5871 5870 5869 5869 5869 5869 5869 5871 5872 5874 5875 5876 5877 5879 5881 5883 5885 5887 5889 5892 5894
5879 5878 5877 5876 5875 5875 5874 5874 5874 5873 5873 5872 5873 5872 5872 5871 5871 5870 5869 5868 5867 5866 5865 5865 5864 5863 5863 5863 5863 5864 5865 5867 5869 5870 5872 5874 5876 5878 5880 5882 5885 5887 5890
5874 5873 5872 5871 5870 5869 5869 5868 5867 5867 5866 5866 5866 5865 5866 5865 5865 5864 5863 5862 5861 5860 5860 5860 5859 5858 5858 5857 5857 5858 5859 5860 5862 5864 5866 5868 5870 5873 5875 5877 5879 5882 5885
5870 5869 5867 5865 5864 5864 5862 5862 5861 5861 5860 5860 5861 5860 5860 5860 5858 5858 5857 5856 5855 5855 5854 5854 5853 5852 5852 5851 5851 5851 5852 5853 5855 5857 5859 5862 5864 5867 5869 5872 5874 5877 5880
5864 5864 5863 5860 5859 5858 5857 5857 5856 5856 5855 5855 5854 5855 5855 5854 5853 5853 5852 5851 5850 5849 5849 5847 5847 5846 5845 5845 5845 5845 5845 5846 5848 5850 5852 5855 5858 5860 5863 5866 5869 5871 5875
5860 5860 5859 5857 5855 5854 5853 5853 5852 5851 5851 5850 5850 5850 5850 5849 5847 5847 5846 5844 5844 5843 5842 5841 5840 5839 5839 5839 5839 5839 5839 5840 5841 5843 5845 5848 5851 5854 5857 5860 5863 5866 5869
5857 5857 5855 5854 5852 5851 5850 5849 5847 5846 5846 5845 5845 5845 5844 5843 5842 5840 5839 5838 5837 5836 5835 5835 5834 5833 5832 5832 5832 5832 5832 5832 5834 5835 5838 5840 5843 5846 5850 5853 5857 5860 5863
5854 5853 5852 5850 5849 5848 5846 5845 5844 5842 5842 5841 5840 5839 5838 5836 5835 5833 5832 5830 5829 5828 5827 5827 5826 5826 5825 5825 5825 5825 5825 5826 5827 5828 5831 5833 5836 5839 5843 5846 5850 5853 5857
5850 5849 5848 5847 5845 5844 5842 5841 5839 5838 5836 5835 5833 5832 5830 5828 5826 5825 5824 5822 5821 5820 5819 5819 5818 5818 5818 5817 5818 5818 5819 5819 5819 5821 5823 5825 5828 5831 5835 5839 5842 5846 5850
5847 5846 5845 5843 5841 5840 5838 5836 5834 5832 5830 5828 5826 5824 5822 5820 5818 5816 5815 5814 5812 5811 5810 5810 5810 5810 5809 5809 5809 5810 5811 5812 5812 5813 5815 5817 5820 5823 5827 5830 5835 5839 5844
5844 5843 5842 5840 5838 5835 5833 5830 5828 5825 5823 5821 5818 5816 5814 5811 5809 5808 5806 5804 5803 5802 5801 5800 5800 5800 5800 5800 5800 5801 5803 5804 5805 5806 5808 5809 5812 5815 5819 5823 5827 5832 5836
5840 5839 5838 5836 5833 5830 5828 5825 5822 5819 5816 5814 5811 5808 5805 5802 5800 5798 5796 5795 5793 5792 5791 5790 5790 5790 5790 5791 5791 5792 5793 5795 5797 5799 5800 5802 5804 5807 5811 5815 5820 5825 5829
5837 5835 5833 5831 5828 5825 5822 5819 5816 5813 5809 5806 5802 5799 5796 5793 5790 5788 5786 5785 5783 5781 5780 5780 5779 5779 5780 5781 5781 5782 5784 5785 5787 5789 5792 5794 5796 5799 5803 5807 5812 5817 5822
5834 5831 5829 5826 5823 5820 5816 5812 5809 5805 5801 5797 5794 5790 5787 5784 5781 5778 5776 5774 5772 5771 5770 5769 5768 5768 5769 5769 5770 5772 5773 5776 5778 5780 5783 5786 5788 5791 5795 5799 5804 5809 5814